Franklin Bluffs old Thermister String (Shallow),,,,,,,,,,,,,
2005 Hourly Average Soil Temperature Data,,,,,,,,,,,,,
Note: 7777 designates data not collected,,,,,,,old,,,,,,
Note: 6999  designates missing data ,,,,,,,,,,,,,
,,,,,1.,,"Day of year, 2005",,,,,,
,,,,,2.,,Date Time,,,,,,
,,,,,3.,,+30 cm snow temperature (C),,,,,,
,,,,,4.,,+20 cm snow temperature (C),,,,,,
,,,,,5.,,+10 cm snow temperature (C),,,,,,
,,,,,6.,,Surface temperature (C),,,,,,
,,,,,7.,,-05 cm soil temperature (C),,,,,,
,,,,,8.,,-10 cm soil temperature (C),,,,,,
,,,,,9.,,-20 cm soil temperature (C),,,,,,
,,,,,10.,,-30 cm soil temperature (C),,,,,,
,,,,,11.,,-40 cm soil temperature (C),,,,,,
,,,,,12.,,-50 cm soil temperature (C),,,,,,
,,,,,13.,,-65 cm soil temperature (C),,,,,,
,,,,,12.,,-85 cm soil temperature (C),,,,,,
,,30 ,20.0 ,10 ,0 ,5.0 ,10.0 ,20.0 ,30.0 ,40.0 ,50.0 ,65.0 ,85 
,,,,,,,,,,,,,
1.04,1/1/2005 1:00,-17.0 ,-15.2 ,-11.9 ,6999 ,-11.7 ,-11.7 ,-12.0 ,-12.1 ,-11.6 ,-11.4 ,-11.4 ,-10.8 
1.08,1/1/2005 2:00,-18.9 ,-15.9 ,-12.1 ,6999 ,-11.8 ,-11.7 ,-12.1 ,-12.1 ,-11.6 ,-11.3 ,-11.3 ,-10.8 
1.13,1/1/2005 3:00,-19.9 ,-16.8 ,-12.3 ,6999 ,-11.8 ,-11.8 ,-12.1 ,-12.1 ,-11.6 ,-11.3 ,-11.3 ,-10.8 
1.17,1/1/2005 4:00,-18.5 ,-17.2 ,-12.5 ,6999 ,-11.9 ,-11.8 ,-12.1 ,-12.1 ,-11.6 ,-11.3 ,-11.3 ,-10.8 
1.21,1/1/2005 5:00,-19.5 ,-17.4 ,-12.5 ,6999 ,-12.0 ,-11.9 ,-12.2 ,-12.1 ,-11.6 ,-11.3 ,-11.3 ,-10.8 
1.25,1/1/2005 6:00,-18.8 ,-17.6 ,-12.6 ,6999 ,-12.1 ,-12.0 ,-12.2 ,-12.1 ,-11.6 ,-11.3 ,-11.3 ,-10.8 
1.29,1/1/2005 7:00,-20.0 ,-17.7 ,-12.7 ,6999 ,-12.1 ,-12.0 ,-12.3 ,-12.1 ,-11.6 ,-11.3 ,-11.3 ,-10.7 
1.33,1/1/2005 8:00,-21.5 ,-17.9 ,-12.8 ,6999 ,-12.2 ,-12.1 ,-12.3 ,-12.2 ,-11.6 ,-11.3 ,-11.3 ,-10.7 
1.38,1/1/2005 9:00,-17.0 ,-18.2 ,-12.9 ,6999 ,-12.2 ,-12.1 ,-12.3 ,-12.2 ,-11.6 ,-11.3 ,-11.3 ,-10.7 
1.42,1/1/2005 10:00,-13.7 ,-17.4 ,-12.8 ,6999 ,-12.3 ,-12.2 ,-12.4 ,-12.2 ,-11.6 ,-11.3 ,-11.3 ,-10.7 
1.46,1/1/2005 11:00,-18.4 ,-16.3 ,-12.6 ,6999 ,-12.3 ,-12.2 ,-12.4 ,-12.2 ,-11.6 ,-11.3 ,-11.2 ,-10.7 
1.50,1/1/2005 12:00,-21.2 ,-16.7 ,-12.6 ,6999 ,-12.3 ,-12.2 ,-12.4 ,-12.3 ,-11.6 ,-11.3 ,-11.2 ,-10.7 
1.54,1/1/2005 13:00,-21.3 ,-17.5 ,-12.8 ,6999 ,-12.3 ,-12.2 ,-12.5 ,-12.3 ,-11.7 ,-11.3 ,-11.2 ,-10.7 
1.58,1/1/2005 14:00,-18.7 ,-18.0 ,-13.0 ,6999 ,-12.4 ,-12.2 ,-12.5 ,-12.3 ,-11.7 ,-11.3 ,-11.2 ,-10.7 
1.63,1/1/2005 15:00,-18.7 ,-17.4 ,-12.9 ,6999 ,-12.4 ,-12.3 ,-12.5 ,-12.3 ,-11.7 ,-11.3 ,-11.2 ,-10.7 
1.67,1/1/2005 16:00,-18.5 ,-17.0 ,-12.9 ,6999 ,-12.4 ,-12.3 ,-12.5 ,-12.3 ,-11.7 ,-11.3 ,-11.2 ,-10.7 
1.71,1/1/2005 17:00,-19.0 ,-16.9 ,-12.9 ,6999 ,-12.4 ,-12.3 ,-12.5 ,-12.3 ,-11.7 ,-11.3 ,-11.2 ,-10.7 
1.75,1/1/2005 18:00,-17.1 ,-16.9 ,-12.9 ,6999 ,-12.4 ,-12.3 ,-12.6 ,-12.3 ,-11.7 ,-11.3 ,-11.2 ,-10.7 
1.79,1/1/2005 19:00,-15.5 ,-16.5 ,-12.8 ,6999 ,-12.4 ,-12.3 ,-12.6 ,-12.4 ,-11.7 ,-11.3 ,-11.2 ,-10.7 
1.83,1/1/2005 20:00,-17.1 ,-16.2 ,-12.7 ,6999 ,-12.4 ,-12.3 ,-12.6 ,-12.4 ,-11.7 ,-11.3 ,-11.2 ,-10.7 
1.88,1/1/2005 21:00,-16.0 ,-16.1 ,-12.7 ,6999 ,-12.4 ,-12.3 ,-12.6 ,-12.4 ,-11.8 ,-11.3 ,-11.2 ,-10.7 
1.92,1/1/2005 22:00,-18.4 ,-16.2 ,-12.7 ,6999 ,-12.4 ,-12.3 ,-12.6 ,-12.4 ,-11.8 ,-11.3 ,-11.2 ,-10.7 
1.96,1/1/2005 23:00,-20.0 ,-16.6 ,-12.8 ,6999 ,-12.4 ,-12.3 ,-12.6 ,-12.4 ,-11.8 ,-11.3 ,-11.2 ,-10.7 
2.00,1/2/2005 0:00,-19.7 ,-17.1 ,-12.9 ,6999 ,-12.4 ,-12.3 ,-12.6 ,-12.4 ,-11.8 ,-11.3 ,-11.2 ,-10.7 
2.04,1/2/2005 1:00,-18.9 ,-17.2 ,-12.9 ,6999 ,-12.5 ,-12.4 ,-12.6 ,-12.4 ,-11.8 ,-11.3 ,-11.2 ,-10.7 
2.08,1/2/2005 2:00,-15.2 ,-16.8 ,-12.9 ,6999 ,-12.5 ,-12.4 ,-12.6 ,-12.4 ,-11.8 ,-11.3 ,-11.2 ,-10.7 
2.13,1/2/2005 3:00,-16.8 ,-16.2 ,-12.8 ,6999 ,-12.5 ,-12.4 ,-12.6 ,-12.4 ,-11.8 ,-11.4 ,-11.2 ,-10.7 
2.17,1/2/2005 4:00,-14.2 ,-15.7 ,-12.7 ,6999 ,-12.5 ,-12.4 ,-12.6 ,-12.4 ,-11.8 ,-11.4 ,-11.2 ,-10.7 
2.21,1/2/2005 5:00,-13.0 ,-14.8 ,-12.6 ,6999 ,-12.4 ,-12.4 ,-12.6 ,-12.4 ,-11.8 ,-11.4 ,-11.2 ,-10.7 
2.25,1/2/2005 6:00,-11.3 ,-13.7 ,-12.4 ,6999 ,-12.4 ,-12.3 ,-12.6 ,-12.4 ,-11.8 ,-11.4 ,-11.2 ,-10.7 
2.29,1/2/2005 7:00,-4.8 ,-12.4 ,-12.1 ,6999 ,-12.3 ,-12.3 ,-12.6 ,-12.4 ,-11.8 ,-11.4 ,-11.2 ,-10.7 
2.33,1/2/2005 8:00,-4.5 ,-10.5 ,-11.7 ,6999 ,-12.2 ,-12.2 ,-12.5 ,-12.4 ,-11.8 ,-11.4 ,-11.2 ,-10.7 
2.38,1/2/2005 9:00,-3.5 ,-9.4 ,-11.4 ,6999 ,-12.1 ,-12.1 ,-12.5 ,-12.4 ,-11.8 ,-11.4 ,-11.3 ,-10.7 
2.42,1/2/2005 10:00,-4.0 ,-8.6 ,-11.1 ,6999 ,-12.0 ,-12.0 ,-12.4 ,-12.4 ,-11.8 ,-11.4 ,-11.3 ,-10.7 
2.46,1/2/2005 11:00,-4.3 ,-8.6 ,-11.0 ,6999 ,-11.8 ,-11.9 ,-12.3 ,-12.3 ,-11.8 ,-11.4 ,-11.3 ,-10.7 
2.50,1/2/2005 12:00,-3.2 ,-8.5 ,-10.9 ,6999 ,-11.7 ,-11.8 ,-12.3 ,-12.3 ,-11.7 ,-11.4 ,-11.2 ,-10.7 
2.54,1/2/2005 13:00,-5.3 ,-8.5 ,-10.8 ,6999 ,-11.6 ,-11.7 ,-12.2 ,-12.3 ,-11.7 ,-11.3 ,-11.3 ,-10.7 
2.58,1/2/2005 14:00,-6.6 ,-9.4 ,-10.9 ,6999 ,-11.6 ,-11.6 ,-12.1 ,-12.2 ,-11.7 ,-11.3 ,-11.2 ,-10.7 
2.63,1/2/2005 15:00,-6.8 ,-10.0 ,-10.9 ,6999 ,-11.5 ,-11.6 ,-12.0 ,-12.2 ,-11.6 ,-11.3 ,-11.2 ,-10.7 
2.67,1/2/2005 16:00,-7.5 ,-10.4 ,-11.0 ,6999 ,-11.5 ,-11.5 ,-12.0 ,-12.1 ,-11.6 ,-11.3 ,-11.2 ,-10.7 
2.71,1/2/2005 17:00,-7.6 ,-10.7 ,-11.0 ,6999 ,-11.5 ,-11.5 ,-12.0 ,-12.1 ,-11.6 ,-11.3 ,-11.2 ,-10.7 
2.75,1/2/2005 18:00,-6.6 ,-10.9 ,-11.0 ,6999 ,-11.4 ,-11.5 ,-11.9 ,-12.1 ,-11.5 ,-11.3 ,-11.2 ,-10.7 
2.79,1/2/2005 19:00,-5.5 ,-10.6 ,-11.0 ,6999 ,-11.4 ,-11.5 ,-11.9 ,-12.0 ,-11.5 ,-11.3 ,-11.2 ,-10.7 
2.83,1/2/2005 20:00,-4.9 ,-10.0 ,-10.8 ,6999 ,-11.4 ,-11.4 ,-11.9 ,-12.0 ,-11.5 ,-11.2 ,-11.2 ,-10.7 
2.88,1/2/2005 21:00,-5.4 ,-9.8 ,-10.7 ,6999 ,-11.4 ,-11.4 ,-11.8 ,-12.0 ,-11.5 ,-11.2 ,-11.2 ,-10.6 
2.92,1/2/2005 22:00,-4.0 ,-9.7 ,-10.7 ,6999 ,-11.3 ,-11.3 ,-11.8 ,-11.9 ,-11.4 ,-11.2 ,-11.2 ,-10.6 
2.96,1/2/2005 23:00,-3.4 ,-9.2 ,-10.6 ,6999 ,-11.3 ,-11.3 ,-11.8 ,-11.9 ,-11.4 ,-11.2 ,-11.2 ,-10.6 
3.00,1/3/2005 0:00,-2.2 ,-8.7 ,-10.4 ,6999 ,-11.2 ,-11.3 ,-11.7 ,-11.9 ,-11.4 ,-11.2 ,-11.2 ,-10.6 
3.04,1/3/2005 1:00,-2.6 ,-8.2 ,-10.3 ,6999 ,-11.1 ,-11.2 ,-11.7 ,-11.8 ,-11.4 ,-11.1 ,-11.2 ,-10.6 
3.08,1/3/2005 2:00,-2.3 ,-8.1 ,-10.2 ,6999 ,-11.1 ,-11.1 ,-11.6 ,-11.8 ,-11.3 ,-11.1 ,-11.1 ,-10.6 
3.13,1/3/2005 3:00,-1.8 ,-7.8 ,-10.1 ,6999 ,-11.0 ,-11.1 ,-11.6 ,-11.8 ,-11.3 ,-11.1 ,-11.1 ,-10.6 
3.17,1/3/2005 4:00,-2.5 ,-7.5 ,-9.9 ,6999 ,-10.9 ,-11.0 ,-11.5 ,-11.7 ,-11.3 ,-11.1 ,-11.1 ,-10.6 
3.21,1/3/2005 5:00,-2.3 ,-7.5 ,-9.8 ,6999 ,-10.9 ,-10.9 ,-11.5 ,-11.7 ,-11.2 ,-11.1 ,-11.1 ,-10.6 
3.25,1/3/2005 6:00,-3.3 ,-7.5 ,-9.8 ,6999 ,-10.8 ,-10.9 ,-11.4 ,-11.7 ,-11.2 ,-11.0 ,-11.1 ,-10.6 
3.29,1/3/2005 7:00,-2.0 ,-7.7 ,-9.8 ,6999 ,-10.7 ,-10.8 ,-11.4 ,-11.6 ,-11.2 ,-11.0 ,-11.1 ,-10.6 
3.33,1/3/2005 8:00,-1.6 ,-7.3 ,-9.7 ,6999 ,-10.7 ,-10.8 ,-11.3 ,-11.6 ,-11.1 ,-11.0 ,-11.1 ,-10.6 
3.38,1/3/2005 9:00,-1.5 ,-7.1 ,-9.6 ,6999 ,-10.7 ,-10.7 ,-11.3 ,-11.5 ,-11.1 ,-11.0 ,-11.1 ,-10.6 
3.42,1/3/2005 10:00,-2.0 ,-6.9 ,-9.5 ,6999 ,-10.6 ,-10.7 ,-11.2 ,-11.5 ,-11.1 ,-11.0 ,-11.0 ,-10.6 
3.46,1/3/2005 11:00,-3.3 ,-6.9 ,-9.5 ,6999 ,-10.5 ,-10.6 ,-11.2 ,-11.5 ,-11.0 ,-10.9 ,-11.0 ,-10.5 
3.50,1/3/2005 12:00,-5.9 ,-7.4 ,-9.6 ,6999 ,-10.5 ,-10.6 ,-11.1 ,-11.4 ,-11.0 ,-10.9 ,-11.0 ,-10.5 
3.54,1/3/2005 13:00,-6.4 ,-8.5 ,-9.7 ,6999 ,-10.4 ,-10.5 ,-11.1 ,-11.4 ,-11.0 ,-10.9 ,-11.0 ,-10.5 
3.58,1/3/2005 14:00,-3.6 ,-8.8 ,-9.8 ,6999 ,-10.4 ,-10.5 ,-11.0 ,-11.3 ,-10.9 ,-10.9 ,-11.0 ,-10.5 
3.63,1/3/2005 15:00,-1.7 ,-8.0 ,-9.7 ,6999 ,-10.4 ,-10.5 ,-11.0 ,-11.3 ,-10.9 ,-10.8 ,-11.0 ,-10.5 
3.67,1/3/2005 16:00,-1.6 ,-7.2 ,-9.5 ,6999 ,-10.4 ,-10.5 ,-11.0 ,-11.3 ,-10.9 ,-10.8 ,-10.9 ,-10.5 
3.71,1/3/2005 17:00,-1.6 ,-6.9 ,-9.4 ,6999 ,-10.3 ,-10.4 ,-11.0 ,-11.3 ,-10.8 ,-10.8 ,-10.9 ,-10.5 
3.75,1/3/2005 18:00,-2.6 ,-6.6 ,-9.3 ,6999 ,-10.3 ,-10.4 ,-10.9 ,-11.2 ,-10.8 ,-10.8 ,-10.9 ,-10.5 
3.79,1/3/2005 19:00,-3.0 ,-6.7 ,-9.3 ,6999 ,-10.2 ,-10.3 ,-10.9 ,-11.2 ,-10.8 ,-10.7 ,-10.9 ,-10.4 
3.83,1/3/2005 20:00,-3.6 ,-6.8 ,-9.3 ,6999 ,-10.2 ,-10.3 ,-10.8 ,-11.2 ,-10.8 ,-10.7 ,-10.9 ,-10.4 
3.88,1/3/2005 21:00,-4.2 ,-7.0 ,-9.3 ,6999 ,-10.1 ,-10.2 ,-10.8 ,-11.1 ,-10.7 ,-10.7 ,-10.9 ,-10.4 
3.92,1/3/2005 22:00,-4.7 ,-7.4 ,-9.3 ,6999 ,-10.1 ,-10.2 ,-10.8 ,-11.1 ,-10.7 ,-10.7 ,-10.8 ,-10.4 
3.96,1/3/2005 23:00,-5.3 ,-7.7 ,-9.4 ,6999 ,-10.1 ,-10.2 ,-10.7 ,-11.0 ,-10.7 ,-10.6 ,-10.8 ,-10.4 
4.00,1/4/2005 0:00,-5.0 ,-7.8 ,-9.4 ,6999 ,-10.1 ,-10.2 ,-10.7 ,-11.0 ,-10.6 ,-10.6 ,-10.8 ,-10.4 
4.04,1/4/2005 1:00,-3.5 ,-7.7 ,-9.4 ,6999 ,-10.1 ,-10.1 ,-10.7 ,-11.0 ,-10.6 ,-10.6 ,-10.8 ,-10.4 
4.08,1/4/2005 2:00,-4.0 ,-7.5 ,-9.3 ,6999 ,-10.0 ,-10.1 ,-10.7 ,-11.0 ,-10.6 ,-10.6 ,-10.8 ,-10.4 
4.13,1/4/2005 3:00,-4.1 ,-7.5 ,-9.4 ,6999 ,-10.0 ,-10.1 ,-10.6 ,-10.9 ,-10.6 ,-10.5 ,-10.7 ,-10.4 
4.17,1/4/2005 4:00,-4.9 ,-7.5 ,-9.4 ,6999 ,-10.0 ,-10.1 ,-10.6 ,-10.9 ,-10.5 ,-10.5 ,-10.7 ,-10.3 
4.21,1/4/2005 5:00,-6.2 ,-7.8 ,-9.4 ,6999 ,-10.0 ,-10.0 ,-10.6 ,-10.9 ,-10.5 ,-10.5 ,-10.7 ,-10.3 
4.25,1/4/2005 6:00,-9.1 ,-8.5 ,-9.4 ,6999 ,-9.9 ,-10.0 ,-10.6 ,-10.9 ,-10.5 ,-10.5 ,-10.7 ,-10.3 
4.29,1/4/2005 7:00,-10.4 ,-9.7 ,-9.6 ,6999 ,-10.0 ,-10.0 ,-10.6 ,-10.8 ,-10.5 ,-10.5 ,-10.7 ,-10.3 
4.33,1/4/2005 8:00,-9.8 ,-10.6 ,-9.8 ,6999 ,-10.0 ,-10.1 ,-10.6 ,-10.8 ,-10.4 ,-10.4 ,-10.7 ,-10.3 
4.38,1/4/2005 9:00,-10.6 ,-11.0 ,-9.9 ,6999 ,-10.1 ,-10.1 ,-10.6 ,-10.8 ,-10.4 ,-10.4 ,-10.7 ,-10.3 
4.42,1/4/2005 10:00,-10.9 ,-11.4 ,-10.1 ,6999 ,-10.1 ,-10.1 ,-10.6 ,-10.8 ,-10.4 ,-10.4 ,-10.6 ,-10.3 
4.46,1/4/2005 11:00,-12.3 ,-11.7 ,-10.2 ,6999 ,-10.1 ,-10.1 ,-10.6 ,-10.8 ,-10.4 ,-10.4 ,-10.6 ,-10.3 
4.50,1/4/2005 12:00,-13.4 ,-12.5 ,-10.4 ,6999 ,-10.2 ,-10.2 ,-10.6 ,-10.8 ,-10.4 ,-10.4 ,-10.6 ,-10.2 
4.54,1/4/2005 13:00,-13.2 ,-13.1 ,-10.6 ,6999 ,-10.3 ,-10.2 ,-10.6 ,-10.8 ,-10.4 ,-10.4 ,-10.6 ,-10.2 
4.58,1/4/2005 14:00,-11.3 ,-13.2 ,-10.7 ,6999 ,-10.3 ,-10.3 ,-10.7 ,-10.8 ,-10.4 ,-10.3 ,-10.6 ,-10.2 
4.63,1/4/2005 15:00,-9.9 ,-12.6 ,-10.6 ,6999 ,-10.4 ,-10.3 ,-10.7 ,-10.8 ,-10.4 ,-10.3 ,-10.6 ,-10.2 
4.67,1/4/2005 16:00,-7.9 ,-11.5 ,-10.3 ,6999 ,-10.4 ,-10.4 ,-10.7 ,-10.8 ,-10.4 ,-10.3 ,-10.5 ,-10.2 
4.71,1/4/2005 17:00,-8.6 ,-10.5 ,-10.1 ,6999 ,-10.4 ,-10.4 ,-10.8 ,-10.9 ,-10.4 ,-10.3 ,-10.5 ,-10.2 
4.75,1/4/2005 18:00,-11.0 ,-10.5 ,-10.1 ,6999 ,-10.4 ,-10.4 ,-10.8 ,-10.9 ,-10.4 ,-10.3 ,-10.5 ,-10.2 
4.79,1/4/2005 19:00,-11.9 ,-10.9 ,-10.1 ,6999 ,-10.4 ,-10.3 ,-10.8 ,-10.9 ,-10.4 ,-10.3 ,-10.5 ,-10.1 
4.83,1/4/2005 20:00,-12.4 ,-11.3 ,-10.2 ,6999 ,-10.3 ,-10.3 ,-10.7 ,-10.9 ,-10.4 ,-10.3 ,-10.5 ,-10.1 
4.88,1/4/2005 21:00,-13.1 ,-11.7 ,-10.2 ,6999 ,-10.4 ,-10.3 ,-10.7 ,-10.9 ,-10.4 ,-10.3 ,-10.5 ,-10.1 
4.92,1/4/2005 22:00,-13.2 ,-12.1 ,-10.3 ,6999 ,-10.4 ,-10.4 ,-10.8 ,-10.9 ,-10.4 ,-10.3 ,-10.5 ,-10.1 
4.96,1/4/2005 23:00,-12.7 ,-12.3 ,-10.4 ,6999 ,-10.4 ,-10.4 ,-10.8 ,-10.9 ,-10.4 ,-10.3 ,-10.5 ,-10.1 
5.00,1/5/2005 0:00,-10.5 ,-12.1 ,-10.5 ,6999 ,-10.4 ,-10.4 ,-10.8 ,-10.9 ,-10.4 ,-10.3 ,-10.5 ,-10.1 
5.04,1/5/2005 1:00,-9.2 ,-11.6 ,-10.4 ,6999 ,-10.4 ,-10.4 ,-10.8 ,-10.9 ,-10.4 ,-10.3 ,-10.5 ,-10.1 
5.08,1/5/2005 2:00,-7.3 ,-10.9 ,-10.3 ,6999 ,-10.4 ,-10.4 ,-10.8 ,-10.9 ,-10.4 ,-10.3 ,-10.4 ,-10.1 
5.13,1/5/2005 3:00,-7.8 ,-10.1 ,-10.1 ,6999 ,-10.4 ,-10.4 ,-10.8 ,-10.9 ,-10.4 ,-10.3 ,-10.4 ,-10.1 
5.17,1/5/2005 4:00,-9.4 ,-10.1 ,-10.0 ,6999 ,-10.4 ,-10.4 ,-10.8 ,-10.9 ,-10.4 ,-10.3 ,-10.4 ,-10.1 
5.21,1/5/2005 5:00,-9.4 ,-10.8 ,-10.1 ,6999 ,-10.4 ,-10.4 ,-10.8 ,-10.9 ,-10.4 ,-10.3 ,-10.4 ,-10.1 
5.25,1/5/2005 6:00,-8.2 ,-11.0 ,-10.2 ,6999 ,-10.4 ,-10.4 ,-10.8 ,-10.9 ,-10.4 ,-10.3 ,-10.4 ,-10.1 
5.29,1/5/2005 7:00,-9.1 ,-10.6 ,-10.1 ,6999 ,-10.4 ,-10.3 ,-10.8 ,-10.9 ,-10.4 ,-10.3 ,-10.4 ,-10.1 
5.33,1/5/2005 8:00,-10.0 ,-10.6 ,-10.1 ,6999 ,-10.4 ,-10.3 ,-10.8 ,-10.9 ,-10.4 ,-10.3 ,-10.4 ,-10.0 
5.38,1/5/2005 9:00,-10.1 ,-10.6 ,-10.1 ,6999 ,-10.3 ,-10.3 ,-10.8 ,-10.9 ,-10.4 ,-10.3 ,-10.4 ,-10.0 
5.42,1/5/2005 10:00,-10.3 ,-10.5 ,-10.0 ,6999 ,-10.3 ,-10.3 ,-10.7 ,-10.8 ,-10.4 ,-10.2 ,-10.4 ,-10.0 
5.46,1/5/2005 11:00,-10.8 ,-10.5 ,-10.0 ,6999 ,-10.3 ,-10.3 ,-10.7 ,-10.8 ,-10.4 ,-10.2 ,-10.4 ,-10.0 
5.50,1/5/2005 12:00,-12.0 ,-10.5 ,-10.1 ,6999 ,-10.3 ,-10.3 ,-10.7 ,-10.8 ,-10.3 ,-10.2 ,-10.4 ,-10.0 
5.54,1/5/2005 13:00,-13.2 ,-10.7 ,-10.1 ,6999 ,-10.3 ,-10.3 ,-10.7 ,-10.8 ,-10.3 ,-10.2 ,-10.4 ,-10.0 
5.58,1/5/2005 14:00,-13.5 ,-10.9 ,-10.2 ,6999 ,-10.3 ,-10.3 ,-10.7 ,-10.8 ,-10.4 ,-10.2 ,-10.4 ,-10.0 
5.63,1/5/2005 15:00,-14.1 ,-11.7 ,-10.3 ,6999 ,-10.3 ,-10.3 ,-10.7 ,-10.8 ,-10.3 ,-10.2 ,-10.4 ,-10.0 
5.67,1/5/2005 16:00,-16.4 ,-12.8 ,-10.5 ,6999 ,-10.3 ,-10.3 ,-10.7 ,-10.8 ,-10.3 ,-10.2 ,-10.4 ,-10.0 
5.71,1/5/2005 17:00,-17.4 ,-14.1 ,-10.7 ,6999 ,-10.4 ,-10.3 ,-10.7 ,-10.8 ,-10.3 ,-10.2 ,-10.4 ,-10.0 
5.75,1/5/2005 18:00,-18.3 ,-14.8 ,-10.8 ,6999 ,-10.4 ,-10.4 ,-10.8 ,-10.8 ,-10.3 ,-10.2 ,-10.4 ,-10.0 
5.79,1/5/2005 19:00,-19.3 ,-15.5 ,-11.0 ,6999 ,-10.5 ,-10.5 ,-10.8 ,-10.8 ,-10.3 ,-10.2 ,-10.3 ,-10.0 
5.83,1/5/2005 20:00,-20.0 ,-16.1 ,-11.1 ,6999 ,-10.6 ,-10.5 ,-10.8 ,-10.8 ,-10.3 ,-10.2 ,-10.3 ,-10.0 
5.88,1/5/2005 21:00,-20.4 ,-16.6 ,-11.3 ,6999 ,-10.7 ,-10.6 ,-10.9 ,-10.9 ,-10.3 ,-10.2 ,-10.3 ,-10.0 
5.92,1/5/2005 22:00,-21.0 ,-17.1 ,-11.5 ,6999 ,-10.8 ,-10.7 ,-10.9 ,-10.9 ,-10.4 ,-10.2 ,-10.3 ,-10.0 
5.96,1/5/2005 23:00,-21.7 ,-17.3 ,-11.6 ,6999 ,-10.9 ,-10.8 ,-11.0 ,-10.9 ,-10.4 ,-10.2 ,-10.3 ,-10.0 
6.00,1/6/2005 0:00,-21.7 ,-17.7 ,-11.8 ,6999 ,-11.0 ,-10.8 ,-11.1 ,-10.9 ,-10.4 ,-10.2 ,-10.3 ,-9.9 
6.04,1/6/2005 1:00,-21.5 ,-17.9 ,-11.9 ,6999 ,-11.1 ,-10.9 ,-11.1 ,-11.0 ,-10.4 ,-10.2 ,-10.3 ,-9.9 
6.08,1/6/2005 2:00,-21.4 ,-17.9 ,-11.9 ,6999 ,-11.2 ,-11.0 ,-11.2 ,-11.0 ,-10.4 ,-10.2 ,-10.3 ,-9.9 
6.13,1/6/2005 3:00,-20.6 ,-17.8 ,-12.0 ,6999 ,-11.2 ,-11.1 ,-11.3 ,-11.1 ,-10.5 ,-10.2 ,-10.3 ,-9.9 
6.17,1/6/2005 4:00,-18.7 ,-17.2 ,-12.0 ,6999 ,-11.3 ,-11.1 ,-11.3 ,-11.1 ,-10.5 ,-10.2 ,-10.3 ,-9.9 
6.21,1/6/2005 5:00,-17.1 ,-16.4 ,-11.9 ,6999 ,-11.3 ,-11.2 ,-11.4 ,-11.1 ,-10.5 ,-10.2 ,-10.3 ,-9.9 
6.25,1/6/2005 6:00,-15.6 ,-15.5 ,-11.8 ,6999 ,-11.3 ,-11.2 ,-11.4 ,-11.2 ,-10.6 ,-10.3 ,-10.3 ,-9.9 
6.29,1/6/2005 7:00,-13.7 ,-14.6 ,-11.6 ,6999 ,-11.3 ,-11.2 ,-11.4 ,-11.2 ,-10.6 ,-10.3 ,-10.3 ,-9.9 
6.33,1/6/2005 8:00,-11.9 ,-13.4 ,-11.4 ,6999 ,-11.3 ,-11.2 ,-11.4 ,-11.2 ,-10.6 ,-10.3 ,-10.3 ,-9.9 
6.38,1/6/2005 9:00,-10.2 ,-12.5 ,-11.2 ,6999 ,-11.2 ,-11.1 ,-11.4 ,-11.3 ,-10.6 ,-10.3 ,-10.3 ,-9.9 
6.42,1/6/2005 10:00,-8.6 ,-11.8 ,-11.0 ,6999 ,-11.1 ,-11.1 ,-11.4 ,-11.3 ,-10.6 ,-10.3 ,-10.4 ,-9.9 
6.46,1/6/2005 11:00,-6.8 ,-10.8 ,-10.8 ,6999 ,-11.1 ,-11.0 ,-11.4 ,-11.3 ,-10.7 ,-10.3 ,-10.3 ,-9.9 
6.50,1/6/2005 12:00,-5.8 ,-9.8 ,-10.5 ,6999 ,-11.0 ,-11.0 ,-11.3 ,-11.3 ,-10.7 ,-10.3 ,-10.4 ,-9.9 
6.54,1/6/2005 13:00,-4.8 ,-8.9 ,-10.3 ,6999 ,-10.9 ,-10.9 ,-11.3 ,-11.2 ,-10.7 ,-10.3 ,-10.4 ,-9.9 
6.58,1/6/2005 14:00,-4.2 ,-8.2 ,-10.2 ,6999 ,-10.8 ,-10.8 ,-11.2 ,-11.2 ,-10.7 ,-10.3 ,-10.4 ,-9.9 
6.63,1/6/2005 15:00,-3.0 ,-8.0 ,-10.0 ,6999 ,-10.7 ,-10.7 ,-11.2 ,-11.2 ,-10.6 ,-10.4 ,-10.4 ,-9.9 
6.67,1/6/2005 16:00,-2.4 ,-8.1 ,-9.9 ,6999 ,-10.6 ,-10.7 ,-11.1 ,-11.2 ,-10.6 ,-10.4 ,-10.4 ,-9.9 
6.71,1/6/2005 17:00,-1.7 ,-8.1 ,-9.8 ,6999 ,-10.5 ,-10.6 ,-11.1 ,-11.1 ,-10.6 ,-10.4 ,-10.4 ,-9.9 
6.75,1/6/2005 18:00,-1.8 ,-7.9 ,-9.6 ,6999 ,-10.5 ,-10.5 ,-11.0 ,-11.1 ,-10.6 ,-10.4 ,-10.4 ,-9.9 
6.79,1/6/2005 19:00,-1.1 ,-7.6 ,-9.4 ,6999 ,-10.4 ,-10.4 ,-10.9 ,-11.1 ,-10.6 ,-10.3 ,-10.4 ,-9.9 
6.83,1/6/2005 20:00,-0.7 ,-6.6 ,-9.4 ,6999 ,-10.3 ,-10.4 ,-10.9 ,-11.0 ,-10.5 ,-10.3 ,-10.4 ,-9.9 
6.88,1/6/2005 21:00,-1.0 ,-5.6 ,-9.3 ,6999 ,-10.2 ,-10.3 ,-10.8 ,-11.0 ,-10.5 ,-10.3 ,-10.4 ,-9.9 
6.92,1/6/2005 22:00,-1.3 ,-5.4 ,-9.1 ,6999 ,-10.1 ,-10.2 ,-10.7 ,-11.0 ,-10.5 ,-10.3 ,-10.4 ,-9.9 
6.96,1/6/2005 23:00,-1.5 ,-5.5 ,-9.0 ,6999 ,-10.1 ,-10.2 ,-10.7 ,-10.9 ,-10.5 ,-10.3 ,-10.4 ,-9.9 
7.00,1/7/2005 0:00,-1.5 ,-5.8 ,-8.9 ,6999 ,-10.0 ,-10.1 ,-10.6 ,-10.9 ,-10.4 ,-10.3 ,-10.4 ,-9.9 
7.04,1/7/2005 1:00,-1.8 ,-5.9 ,-8.9 ,6999 ,-9.9 ,-10.0 ,-10.6 ,-10.8 ,-10.4 ,-10.3 ,-10.4 ,-9.9 
7.08,1/7/2005 2:00,-2.4 ,-6.0 ,-8.9 ,6999 ,-9.9 ,-10.0 ,-10.5 ,-10.8 ,-10.4 ,-10.2 ,-10.4 ,-9.9 
7.13,1/7/2005 3:00,-2.7 ,-6.2 ,-8.8 ,6999 ,-9.8 ,-9.9 ,-10.5 ,-10.7 ,-10.3 ,-10.2 ,-10.3 ,-9.9 
7.17,1/7/2005 4:00,-3.0 ,-6.3 ,-8.8 ,6999 ,-9.8 ,-9.8 ,-10.4 ,-10.7 ,-10.3 ,-10.2 ,-10.3 ,-9.9 
7.21,1/7/2005 5:00,-3.2 ,-6.5 ,-8.8 ,6999 ,-9.7 ,-9.8 ,-10.4 ,-10.7 ,-10.3 ,-10.2 ,-10.3 ,-9.9 
7.25,1/7/2005 6:00,-3.2 ,-6.6 ,-8.8 ,6999 ,-9.7 ,-9.8 ,-10.3 ,-10.6 ,-10.2 ,-10.2 ,-10.3 ,-9.9 
7.29,1/7/2005 7:00,-2.8 ,-6.7 ,-8.8 ,6999 ,-9.7 ,-9.7 ,-10.3 ,-10.6 ,-10.2 ,-10.1 ,-10.3 ,-9.9 
7.33,1/7/2005 8:00,-2.3 ,-6.8 ,-8.8 ,6999 ,-9.6 ,-9.7 ,-10.3 ,-10.6 ,-10.2 ,-10.1 ,-10.3 ,-9.9 
7.38,1/7/2005 9:00,-1.7 ,-6.7 ,-8.7 ,6999 ,-9.6 ,-9.7 ,-10.2 ,-10.5 ,-10.1 ,-10.1 ,-10.3 ,-9.9 
7.42,1/7/2005 10:00,-2.0 ,-6.5 ,-8.6 ,6999 ,-9.6 ,-9.6 ,-10.2 ,-10.5 ,-10.1 ,-10.1 ,-10.3 ,-9.9 
7.46,1/7/2005 11:00,-2.2 ,-6.4 ,-8.5 ,6999 ,-9.5 ,-9.6 ,-10.2 ,-10.5 ,-10.1 ,-10.0 ,-10.3 ,-9.9 
7.50,1/7/2005 12:00,-2.3 ,-6.4 ,-8.5 ,6999 ,-9.5 ,-9.6 ,-10.1 ,-10.4 ,-10.0 ,-10.0 ,-10.2 ,-9.9 
7.54,1/7/2005 13:00,-2.3 ,-6.4 ,-8.5 ,6999 ,-9.4 ,-9.5 ,-10.1 ,-10.4 ,-10.0 ,-10.0 ,-10.2 ,-9.9 
7.58,1/7/2005 14:00,-2.3 ,-6.4 ,-8.5 ,6999 ,-9.4 ,-9.5 ,-10.1 ,-10.4 ,-10.0 ,-10.0 ,-10.2 ,-9.8 
7.63,1/7/2005 15:00,-2.0 ,-6.4 ,-8.4 ,6999 ,-9.4 ,-9.5 ,-10.0 ,-10.4 ,-10.0 ,-10.0 ,-10.2 ,-9.8 
7.67,1/7/2005 16:00,-1.5 ,-6.3 ,-8.4 ,6999 ,-9.4 ,-9.4 ,-10.0 ,-10.3 ,-9.9 ,-9.9 ,-10.2 ,-9.8 
7.71,1/7/2005 17:00,-1.4 ,-6.3 ,-8.3 ,6999 ,-9.3 ,-9.4 ,-10.0 ,-10.3 ,-9.9 ,-9.9 ,-10.2 ,-9.8 
7.75,1/7/2005 18:00,-1.5 ,-6.3 ,-8.3 ,6999 ,-9.3 ,-9.4 ,-9.9 ,-10.3 ,-9.9 ,-9.9 ,-10.2 ,-9.8 
7.79,1/7/2005 19:00,-1.6 ,-6.3 ,-8.2 ,6999 ,-9.3 ,-9.4 ,-9.9 ,-10.2 ,-9.9 ,-9.9 ,-10.1 ,-9.8 
7.83,1/7/2005 20:00,-1.3 ,-6.3 ,-8.2 ,6999 ,-9.2 ,-9.3 ,-9.9 ,-10.2 ,-9.8 ,-9.9 ,-10.1 ,-9.8 
7.88,1/7/2005 21:00,-1.0 ,-6.3 ,-8.1 ,6999 ,-9.2 ,-9.3 ,-9.8 ,-10.2 ,-9.8 ,-9.8 ,-10.1 ,-9.8 
7.92,1/7/2005 22:00,-0.7 ,-6.3 ,-8.1 ,6999 ,-9.2 ,-9.3 ,-9.8 ,-10.2 ,-9.8 ,-9.8 ,-10.1 ,-9.8 
7.96,1/7/2005 23:00,-0.4 ,-6.2 ,-8.0 ,6999 ,-9.1 ,-9.2 ,-9.8 ,-10.1 ,-9.8 ,-9.8 ,-10.1 ,-9.8 
8.00,1/8/2005 0:00,-0.2 ,-6.1 ,-8.0 ,6999 ,-9.1 ,-9.2 ,-9.8 ,-10.1 ,-9.7 ,-9.8 ,-10.1 ,-9.7 
8.04,1/8/2005 1:00,-0.1 ,-6.0 ,-7.9 ,6999 ,-9.1 ,-9.2 ,-9.7 ,-10.1 ,-9.7 ,-9.8 ,-10.0 ,-9.7 
8.08,1/8/2005 2:00,-0.1 ,-5.9 ,-7.8 ,6999 ,-9.1 ,-9.1 ,-9.7 ,-10.1 ,-9.7 ,-9.7 ,-10.0 ,-9.7 
8.13,1/8/2005 3:00,0.2 ,-5.8 ,-7.8 ,6999 ,-9.0 ,-9.1 ,-9.7 ,-10.0 ,-9.7 ,-9.7 ,-10.0 ,-9.7 
8.17,1/8/2005 4:00,0.4 ,-5.7 ,-7.7 ,6999 ,-9.0 ,-9.1 ,-9.6 ,-10.0 ,-9.6 ,-9.7 ,-10.0 ,-9.7 
8.21,1/8/2005 5:00,0.5 ,-5.6 ,-7.6 ,6999 ,-8.9 ,-9.0 ,-9.6 ,-10.0 ,-9.6 ,-9.7 ,-10.0 ,-9.7 
8.25,1/8/2005 6:00,0.4 ,-5.6 ,-7.6 ,6999 ,-8.9 ,-9.0 ,-9.6 ,-10.0 ,-9.6 ,-9.7 ,-10.0 ,-9.7 
8.29,1/8/2005 7:00,0.1 ,-5.5 ,-7.5 ,6999 ,-8.9 ,-9.0 ,-9.5 ,-9.9 ,-9.6 ,-9.6 ,-10.0 ,-9.7 
8.33,1/8/2005 8:00,-0.3 ,-5.5 ,-7.5 ,6999 ,-8.8 ,-8.9 ,-9.5 ,-9.9 ,-9.6 ,-9.6 ,-9.9 ,-9.7 
8.38,1/8/2005 9:00,-0.6 ,-5.5 ,-7.5 ,6999 ,-8.8 ,-8.9 ,-9.5 ,-9.9 ,-9.5 ,-9.6 ,-9.9 ,-9.6 
8.42,1/8/2005 10:00,-0.8 ,-5.6 ,-7.5 ,6999 ,-8.8 ,-8.9 ,-9.4 ,-9.8 ,-9.5 ,-9.6 ,-9.9 ,-9.6 
8.46,1/8/2005 11:00,-1.2 ,-5.6 ,-7.5 ,6999 ,-8.7 ,-8.8 ,-9.4 ,-9.8 ,-9.5 ,-9.6 ,-9.9 ,-9.6 
8.50,1/8/2005 12:00,-1.3 ,-5.7 ,-7.5 ,6999 ,-8.7 ,-8.8 ,-9.4 ,-9.8 ,-9.5 ,-9.5 ,-9.9 ,-9.6 
8.54,1/8/2005 13:00,-1.5 ,-5.8 ,-7.6 ,6999 ,-8.7 ,-8.8 ,-9.4 ,-9.8 ,-9.4 ,-9.5 ,-9.9 ,-9.6 
8.58,1/8/2005 14:00,-1.8 ,-5.8 ,-7.5 ,6999 ,-8.7 ,-8.8 ,-9.3 ,-9.7 ,-9.4 ,-9.5 ,-9.8 ,-9.6 
8.63,1/8/2005 15:00,-5.9 ,-5.9 ,-7.5 ,6999 ,-8.7 ,-8.7 ,-9.3 ,-9.7 ,-9.4 ,-9.5 ,-9.8 ,-9.6 
8.67,1/8/2005 16:00,-11.2 ,-6.1 ,-7.6 ,6999 ,-8.6 ,-8.7 ,-9.3 ,-9.7 ,-9.4 ,-9.5 ,-9.8 ,-9.6 
8.71,1/8/2005 17:00,-13.4 ,-6.5 ,-7.9 ,6999 ,-8.6 ,-8.7 ,-9.3 ,-9.7 ,-9.3 ,-9.4 ,-9.8 ,-9.5 
8.75,1/8/2005 18:00,-15.3 ,-7.4 ,-8.3 ,6999 ,-8.6 ,-8.7 ,-9.3 ,-9.6 ,-9.3 ,-9.4 ,-9.8 ,-9.5 
8.79,1/8/2005 19:00,-17.0 ,-8.2 ,-8.6 ,6999 ,-8.7 ,-8.7 ,-9.3 ,-9.6 ,-9.3 ,-9.4 ,-9.8 ,-9.5 
8.83,1/8/2005 20:00,-16.7 ,-8.8 ,-8.7 ,6999 ,-8.7 ,-8.8 ,-9.3 ,-9.6 ,-9.3 ,-9.4 ,-9.7 ,-9.5 
8.88,1/8/2005 21:00,-17.2 ,-9.4 ,-8.9 ,6999 ,-8.8 ,-8.8 ,-9.3 ,-9.6 ,-9.3 ,-9.4 ,-9.7 ,-9.5 
8.92,1/8/2005 22:00,-20.7 ,-9.9 ,-9.0 ,6999 ,-8.8 ,-8.8 ,-9.3 ,-9.6 ,-9.2 ,-9.3 ,-9.7 ,-9.5 
8.96,1/8/2005 23:00,-21.7 ,-10.4 ,-9.1 ,6999 ,-8.9 ,-8.9 ,-9.4 ,-9.6 ,-9.2 ,-9.3 ,-9.7 ,-9.4 
9.00,1/9/2005 0:00,-22.6 ,-11.1 ,-9.4 ,6999 ,-8.9 ,-8.9 ,-9.4 ,-9.6 ,-9.2 ,-9.3 ,-9.7 ,-9.4 
9.04,1/9/2005 1:00,-23.0 ,-11.9 ,-9.8 ,6999 ,-9.0 ,-9.0 ,-9.4 ,-9.6 ,-9.3 ,-9.3 ,-9.7 ,-9.4 
9.08,1/9/2005 2:00,-23.4 ,-12.6 ,-10.1 ,6999 ,-9.1 ,-9.1 ,-9.5 ,-9.6 ,-9.3 ,-9.3 ,-9.7 ,-9.4 
9.13,1/9/2005 3:00,-23.6 ,-13.3 ,-10.3 ,6999 ,-9.2 ,-9.2 ,-9.5 ,-9.7 ,-9.3 ,-9.3 ,-9.6 ,-9.4 
9.17,1/9/2005 4:00,-23.9 ,-13.9 ,-10.4 ,6999 ,-9.3 ,-9.2 ,-9.6 ,-9.7 ,-9.3 ,-9.3 ,-9.6 ,-9.4 
9.21,1/9/2005 5:00,-24.4 ,-14.3 ,-10.6 ,6999 ,-9.4 ,-9.3 ,-9.7 ,-9.7 ,-9.3 ,-9.3 ,-9.6 ,-9.4 
9.25,1/9/2005 6:00,-24.7 ,-14.7 ,-10.7 ,6999 ,-9.5 ,-9.4 ,-9.7 ,-9.8 ,-9.3 ,-9.3 ,-9.6 ,-9.4 
9.29,1/9/2005 7:00,-24.9 ,-14.9 ,-10.9 ,6999 ,-9.6 ,-9.5 ,-9.8 ,-9.8 ,-9.3 ,-9.3 ,-9.6 ,-9.3 
9.33,1/9/2005 8:00,-24.6 ,-15.2 ,-11.0 ,6999 ,-9.7 ,-9.6 ,-9.9 ,-9.9 ,-9.4 ,-9.3 ,-9.6 ,-9.3 
9.38,1/9/2005 9:00,-24.8 ,-15.4 ,-10.9 ,6999 ,-9.8 ,-9.7 ,-10.0 ,-9.9 ,-9.4 ,-9.3 ,-9.6 ,-9.3 
9.42,1/9/2005 10:00,-24.8 ,-15.2 ,-11.1 ,6999 ,-9.9 ,-9.7 ,-10.0 ,-9.9 ,-9.4 ,-9.3 ,-9.6 ,-9.3 
9.46,1/9/2005 11:00,-24.4 ,-15.3 ,-11.2 ,6999 ,-9.9 ,-9.8 ,-10.1 ,-10.0 ,-9.5 ,-9.3 ,-9.6 ,-9.3 
9.50,1/9/2005 12:00,-23.8 ,-15.5 ,-11.1 ,6999 ,-10.0 ,-9.9 ,-10.1 ,-10.0 ,-9.5 ,-9.3 ,-9.6 ,-9.3 
9.54,1/9/2005 13:00,-23.5 ,-15.7 ,-11.1 ,6999 ,-10.0 ,-9.9 ,-10.2 ,-10.1 ,-9.5 ,-9.4 ,-9.6 ,-9.3 
9.58,1/9/2005 14:00,-25.5 ,-15.5 ,-11.1 ,6999 ,-10.1 ,-10.0 ,-10.2 ,-10.1 ,-9.6 ,-9.4 ,-9.6 ,-9.3 
9.63,1/9/2005 15:00,-25.8 ,-15.5 ,-11.2 ,6999 ,-10.1 ,-10.0 ,-10.3 ,-10.1 ,-9.6 ,-9.4 ,-9.6 ,-9.3 
9.67,1/9/2005 16:00,-26.1 ,-15.5 ,-11.2 ,6999 ,-10.2 ,-10.1 ,-10.3 ,-10.2 ,-9.6 ,-9.4 ,-9.6 ,-9.3 
9.71,1/9/2005 17:00,-26.4 ,-15.7 ,-11.3 ,6999 ,-10.2 ,-10.1 ,-10.4 ,-10.2 ,-9.6 ,-9.4 ,-9.6 ,-9.3 
9.75,1/9/2005 18:00,-26.8 ,-15.8 ,-11.4 ,6999 ,-10.3 ,-10.1 ,-10.4 ,-10.2 ,-9.7 ,-9.4 ,-9.6 ,-9.3 
9.79,1/9/2005 19:00,-27.2 ,-16.1 ,-11.4 ,6999 ,-10.3 ,-10.2 ,-10.4 ,-10.3 ,-9.7 ,-9.5 ,-9.6 ,-9.3 
9.83,1/9/2005 20:00,-27.4 ,-16.3 ,-11.6 ,6999 ,-10.4 ,-10.3 ,-10.5 ,-10.3 ,-9.7 ,-9.5 ,-9.6 ,-9.3 
9.88,1/9/2005 21:00,-27.6 ,-16.5 ,-11.7 ,6999 ,-10.4 ,-10.3 ,-10.5 ,-10.3 ,-9.7 ,-9.5 ,-9.6 ,-9.3 
9.92,1/9/2005 22:00,-27.7 ,-16.8 ,-12.0 ,6999 ,-10.5 ,-10.4 ,-10.6 ,-10.4 ,-9.8 ,-9.5 ,-9.6 ,-9.3 
9.96,1/9/2005 23:00,-28.1 ,-17.1 ,-12.1 ,6999 ,-10.6 ,-10.4 ,-10.6 ,-10.4 ,-9.8 ,-9.5 ,-9.6 ,-9.3 
10.00,1/10/2005 0:00,-28.3 ,-17.1 ,-12.3 ,6999 ,-10.6 ,-10.5 ,-10.7 ,-10.5 ,-9.8 ,-9.5 ,-9.6 ,-9.3 
10.04,1/10/2005 1:00,-28.6 ,-17.4 ,-12.3 ,6999 ,-10.7 ,-10.6 ,-10.7 ,-10.5 ,-9.9 ,-9.6 ,-9.7 ,-9.3 
10.08,1/10/2005 2:00,-28.9 ,-17.5 ,-12.5 ,6999 ,-10.8 ,-10.6 ,-10.8 ,-10.6 ,-9.9 ,-9.6 ,-9.7 ,-9.3 
10.13,1/10/2005 3:00,-29.4 ,-17.7 ,-12.5 ,6999 ,-10.9 ,-10.7 ,-10.9 ,-10.6 ,-9.9 ,-9.6 ,-9.7 ,-9.3 
10.17,1/10/2005 4:00,-29.9 ,-17.9 ,-12.7 ,6999 ,-10.9 ,-10.8 ,-10.9 ,-10.6 ,-10.0 ,-9.6 ,-9.7 ,-9.3 
10.21,1/10/2005 5:00,-30.2 ,-18.3 ,-12.7 ,6999 ,-11.0 ,-10.8 ,-11.0 ,-10.7 ,-10.0 ,-9.6 ,-9.7 ,-9.3 
10.25,1/10/2005 6:00,-30.1 ,-18.3 ,-13.0 ,6999 ,-11.1 ,-10.9 ,-11.0 ,-10.7 ,-10.0 ,-9.7 ,-9.7 ,-9.3 
10.29,1/10/2005 7:00,-29.7 ,-18.8 ,-12.8 ,6999 ,-11.1 ,-10.9 ,-11.1 ,-10.8 ,-10.1 ,-9.7 ,-9.7 ,-9.3 
10.33,1/10/2005 8:00,-29.7 ,-18.5 ,-12.9 ,6999 ,-11.2 ,-11.0 ,-11.1 ,-10.8 ,-10.1 ,-9.7 ,-9.7 ,-9.3 
10.38,1/10/2005 9:00,-29.0 ,-18.6 ,-12.9 ,6999 ,-11.2 ,-11.0 ,-11.2 ,-10.8 ,-10.1 ,-9.7 ,-9.7 ,-9.3 
10.42,1/10/2005 10:00,-29.7 ,-18.5 ,-12.9 ,6999 ,-11.3 ,-11.1 ,-11.2 ,-10.9 ,-10.2 ,-9.8 ,-9.8 ,-9.3 
10.46,1/10/2005 11:00,-29.4 ,-18.2 ,-13.1 ,6999 ,-11.3 ,-11.1 ,-11.3 ,-10.9 ,-10.2 ,-9.8 ,-9.8 ,-9.3 
10.50,1/10/2005 12:00,-28.7 ,-18.4 ,-13.0 ,6999 ,-11.3 ,-11.2 ,-11.3 ,-11.0 ,-10.3 ,-9.8 ,-9.8 ,-9.3 
10.54,1/10/2005 13:00,-29.7 ,-18.4 ,-13.0 ,6999 ,-11.4 ,-11.2 ,-11.4 ,-11.0 ,-10.3 ,-9.8 ,-9.8 ,-9.3 
10.58,1/10/2005 14:00,-30.1 ,-18.1 ,-13.0 ,6999 ,-11.4 ,-11.2 ,-11.4 ,-11.0 ,-10.3 ,-9.9 ,-9.8 ,-9.4 
10.63,1/10/2005 15:00,-29.5 ,-18.3 ,-13.0 ,6999 ,-11.5 ,-11.3 ,-11.4 ,-11.1 ,-10.4 ,-9.9 ,-9.9 ,-9.4 
10.67,1/10/2005 16:00,-29.9 ,-18.1 ,-13.0 ,6999 ,-11.5 ,-11.3 ,-11.5 ,-11.1 ,-10.4 ,-9.9 ,-9.9 ,-9.4 